全部
Dickson Muni Airport (Dickson, TN) M02 天气
|
Dickson, TN (M02)
晴天
微风 |
|
18 °C |
There is no TAF data available at M02 or any nearby airports.
M02近期METAR历史数据
| Date | Time (CDT) | Flight Rules | Wind Dir. | Speed | Type | Height AGL (ft) | Visibility | Temp (°C) | Temp (°F) | Dew Point (°C) | Dew Point (°F) | Rel. Humid. | Pressure | Density Altitude | Remarks |
|---|---|---|---|---|---|---|---|---|---|---|---|---|---|---|---|
| 05-五月 | 09:55 | VFR | 220° | 9 kt | 10 miles | 18° | 64° | 11° | 51° | 64% | 29.89 in Hg | 1,282 ft | Wind gusting to 14 KT | ||
| 05-五月 | 09:35 | VFR | 210° | 10 kt | 10 miles | 17° | 62° | 11° | 51° | 68% | 29.89 in Hg | 1,162 ft | Wind gusting to 15 KT | ||
| 05-五月 | 09:15 | VFR | 200° | 10 kt | 10 miles | 17° | 62° | 11° | 51° | 68% | 29.88 in Hg | 1,172 ft | |||
| 05-五月 | 08:55 | VFR | 210° | 10 kt | 10 miles | 17° | 62° | 11° | 51° | 68% | 29.88 in Hg | 1,172 ft | |||
| 05-五月 | 08:15 | VFR | 210° | 9 kt | 10 miles | 16° | 60° | 10° | 50° | 68% | 29.88 in Hg | 1,052 ft | |||
| 05-五月 | 07:55 | VFR | 200° | 11 kt | 10 miles | 16° | 60° | 10° | 50° | 68% | 29.86 in Hg | 1,072 ft | |||
| 05-五月 | 07:15 | VFR | 190° | 10 kt | 10 miles | 15° | 59° | 10° | 50° | 72% | 29.86 in Hg | 952 ft | |||
| 05-五月 | 06:55 | VFR | 190° | 9 kt | 10 miles | 15° | 59° | 10° | 50° | 72% | 29.86 in Hg | 952 ft | |||
| 05-五月 | 06:15 | VFR | 190° | 7 kt | 10 miles | 15° | 59° | 9° | 48° | 67% | 29.84 in Hg | 972 ft | |||
| 05-五月 | 05:55 | VFR | 190° | 8 kt | 10 miles | 14° | 57° | 9° | 48° | 72% | 29.84 in Hg | 852 ft | |||
| 05-五月 | 05:35 | VFR | 200° | 6 kt | 10 miles | 14° | 57° | 9° | 48° | 72% | 29.84 in Hg | 852 ft | |||
| 05-五月 | 05:15 | VFR | 200° | 6 kt | 10 miles | 15° | 59° | 9° | 48° | 67% | 29.84 in Hg | 972 ft | |||
| 05-五月 | 04:55 | VFR | 190° | 7 kt | 10 miles | 15° | 59° | 9° | 48° | 67% | 29.83 in Hg | 982 ft | |||
| 05-五月 | 04:35 | VFR | 190° | 6 kt | 10 miles | 14° | 57° | 9° | 48° | 72% | 29.83 in Hg | 862 ft | |||
| 05-五月 | 04:15 | VFR | 190° | 6 kt | 10 miles | 15° | 59° | 9° | 48° | 67% | 29.83 in Hg | 982 ft | |||
| 05-五月 | 03:55 | VFR | 190° | 6 kt | 10 miles | 14° | 57° | 9° | 48° | 72% | 29.83 in Hg | 862 ft | |||
| 05-五月 | 03:15 | VFR | 200° | 8 kt | 10 miles | 15° | 59° | 9° | 48° | 67% | 29.82 in Hg | 992 ft | |||
| 05-五月 | 02:55 | VFR | 200° | 9 kt | 10 miles | 15° | 59° | 9° | 48° | 67% | 29.82 in Hg | 992 ft | |||
| 05-五月 | 02:15 | VFR | 200° | 9 kt | 10 miles | 15° | 59° | 9° | 48° | 67% | 29.83 in Hg | 982 ft | |||
| 05-五月 | 01:55 | VFR | 200° | 8 kt | 10 miles | 16° | 60° | 9° | 48° | 63% | 29.83 in Hg | 1,102 ft | |||
| 05-五月 | 01:35 | VFR | 200° | 9 kt | 10 miles | 16° | 60° | 9° | 48° | 63% | 29.84 in Hg | 1,092 ft | |||
| 05-五月 | 01:15 | VFR | 200° | 9 kt | 10 miles | 16° | 60° | 9° | 48° | 63% | 29.85 in Hg | 1,082 ft | |||
| 05-五月 | 00:55 | VFR | 200° | 8 kt | 10 miles | 16° | 60° | 9° | 48° | 63% | 29.85 in Hg | 1,082 ft | |||
| 05-五月 | 00:15 | VFR | 200° | 8 kt | 10 miles | 17° | 62° | 9° | 48° | 59% | 29.86 in Hg | 1,192 ft |
登录
| 您的浏览器不支持. 升级您的浏览器 |
